Regional Weather Roundup
Issued by NWS

Home | Current Version | Previous Version | Text Only | Print | Product List | Glossary On
Versions: 1 2 3 4 5 6 7 8 9 10 11 12 13 14 15 16 17 18 19 20 21 22 23 24 25 26 27 28 29 30 31 32 33 34 35 36 37 38 39 40 41 42 43 44 45 46 47 48 49 50
000
ASUS44 KOUN 010210
RWROK

WEATHER ROUNDUP FOR OKLAHOMA
NATIONAL WEATHER SERVICE NORMAN OK
900 PM CDT MON AUG 31 2015

NOTE: "FAIR" INDICATES FEW OR NO CLOUDS BELOW 12,000 FEET WITH NO
      SIGNIFICANT WEATHER AND/OR OBSTRUCTIONS TO VISIBILITY.

OKZ001>007-009>012-014-015-017-010300-
NORTHWEST OKLAHOMA AND THE PANHANDLE

CITY           SKY/WX    TMP DP  RH WIND       PRES   REMARKS
GAGE           CLEAR     81  54  39 SE13      29.94R
GUYMON         MOCLDY    80  50  34 S10       29.93R
ENID/WOODRING  PTCLDY    82  63  51 SE12G21   29.93R
$$

OKZ016-021>023-033>039-044-045-010300-
SOUTHWEST OKLAHOMA

CITY           SKY/WX    TMP DP  RH WIND       PRES   REMARKS
LAWTON/REGL    CLEAR     86  62  44 SE12      29.94R
LAWTON/FT SILL CLEAR     85  64  50 SE10      29.93R
FREDERICK      CLEAR     85  62  46 SE10      29.90R
CLINTON        CLEAR     83  54  36 SE9       29.97R
HOBART         CLEAR     86  59  39 SE14      29.95R
ALTUS AFB      CLEAR     82  59  46 SE13      29.92R
$$

OKZ018>020-024>031-010300-
CENTRAL OKLAHOMA

CITY           SKY/WX    TMP DP  RH WIND       PRES   REMARKS
OKLAHOMA CITY  CLEAR     81  64  56 SE10      29.97R
OKC/WILEY POST CLEAR     86  62  44 SE13      29.97R
OKC/TINKER AFB CLEAR     81  64  57 SE10      29.97R
STILLWATER     CLEAR     83  65  54 SE10      29.96R
GUTHRIE        CLEAR     84  63  49 SE9       29.96R
$$

OKZ008-013-054>072-010300-
NORTHEAST OKLAHOMA

CITY           SKY/WX    TMP DP  RH WIND       PRES   REMARKS
TULSA          CLEAR     80  69  69 SE6       29.96R
TULSA/JONES    CLEAR     83  69  62 SE5       29.97R
PONCA CITY     CLEAR     84  67  56 SE15      29.94R
BARTLESVILLE   CLEAR     79  72  79 S5        29.97R
MUSKOGEE       CLEAR     78  72  81 SE3       29.99R
$$

OKZ032-040>043-046>053-073>077-010300-
SOUTH CENTRAL/SOUTHEAST OKLAHOMA

CITY           SKY/WX    TMP DP  RH WIND       PRES   REMARKS
ARDMORE/DWNTWN CLEAR     81  59  47 SE5       29.98R
MCALESTER      CLEAR     79  68  69 SE3       29.99R
$$



USA.gov is the U.S. government's official web portal to all federal, state and local government web resources and services.